TimePDT,TemperatureF,Dew PointF,Humidity,Sea Level PressureIn,VisibilityMPH,Wind Direction,Wind SpeedMPH,Gust SpeedMPH,PrecipitationIn,Events,Conditions,WindDirDegrees,DateUTC
12:33 AM,62.6,55.4,77,30.00,10.0,Calm,Calm,-,N/A,,Mostly Cloudy,0,2012-10-10 07:33:00
12:53 AM,63.0,55.0,75,29.99,10.0,East,4.6,-,N/A,,Mostly Cloudy,80,2012-10-10 07:53:00
1:53 AM,63.0,55.0,75,29.99,10.0,East,3.5,-,N/A,,Mostly Cloudy,80,2012-10-10 08:53:00
2:53 AM,64.0,55.0,73,29.98,10.0,ESE,3.5,-,N/A,,Overcast,110,2012-10-10 09:53:00
3:53 AM,63.0,54.0,72,29.96,10.0,Calm,Calm,-,N/A,,Overcast,0,2012-10-10 10:53:00
4:53 AM,62.1,54.0,75,29.96,10.0,Calm,Calm,-,N/A,,Mostly Cloudy,0,2012-10-10 11:53:00
5:53 AM,61.0,54.0,78,29.98,10.0,South,3.5,-,N/A,,Mostly Cloudy,180,2012-10-10 12:53:00
6:53 AM,61.0,55.0,81,29.98,10.0,East,3.5,-,N/A,,Mostly Cloudy,90,2012-10-10 13:53:00
7:53 AM,64.9,54.0,68,29.99,10.0,South,3.5,-,N/A,,Overcast,170,2012-10-10 14:53:00
8:53 AM,66.9,57.0,70,29.99,10.0,Calm,Calm,-,N/A,,Partly Cloudy,0,2012-10-10 15:53:00
9:06 AM,66.2,57.2,73,30.00,10.0,WNW,4.6,-,N/A,,Mostly Cloudy,300,2012-10-10 16:06:00
9:13 AM,66.2,57.2,73,30.00,10.0,West,5.8,-,N/A,,Scattered Clouds,270,2012-10-10 16:13:00
9:53 AM,68.0,57.0,68,29.99,10.0,Variable,3.5,-,N/A,,Partly Cloudy,0,2012-10-10 16:53:00
10:00 AM,68.0,57.2,68,30.00,10.0,West,9.2,-,N/A,,Mostly Cloudy,270,2012-10-10 17:00:00
10:53 AM,66.9,57.9,73,29.99,10.0,West,6.9,-,N/A,,Mostly Cloudy,270,2012-10-10 17:53:00
11:53 AM,70.0,57.0,63,29.97,10.0,West,9.2,-,N/A,,Mostly Cloudy,270,2012-10-10 18:53:00
12:53 PM,71.1,57.0,61,29.95,10.0,WNW,9.2,-,N/A,,Mostly Cloudy,290,2012-10-10 19:53:00
1:00 PM,71.6,57.2,60,29.96,10.0,Variable,4.6,-,N/A,,Scattered Clouds,0,2012-10-10 20:00:00
1:23 PM,73.4,57.2,57,29.95,10.0,NW,8.1,-,N/A,,Mostly Cloudy,310,2012-10-10 20:23:00
1:35 PM,71.6,57.2,60,29.95,10.0,West,11.5,16.1,N/A,,Mostly Cloudy,270,2012-10-10 20:35:00
1:50 PM,71.6,55.4,57,29.94,10.0,West,10.4,-,N/A,,Scattered Clouds,260,2012-10-10 20:50:00
1:53 PM,70.0,55.9,61,29.93,10.0,West,11.5,16.1,N/A,,Partly Cloudy,270,2012-10-10 20:53:00
2:53 PM,71.1,55.9,59,29.93,10.0,WSW,10.4,-,N/A,,Scattered Clouds,250,2012-10-10 21:53:00
3:49 PM,69.8,55.4,60,29.94,10.0,Variable,6.9,16.1,N/A,,Mostly Cloudy,0,2012-10-10 22:49:00
3:53 PM,68.0,55.9,65,29.93,10.0,WNW,8.1,16.1,N/A,,Mostly Cloudy,290,2012-10-10 22:53:00
4:53 PM,66.9,55.9,68,29.92,10.0,West,8.1,-,N/A,,Mostly Cloudy,280,2012-10-10 23:53:00
5:53 PM,64.9,55.9,73,29.92,10.0,West,8.1,-,N/A,,Mostly Cloudy,280,2012-10-11 00:53:00
6:00 PM,64.4,57.2,77,29.93,10.0,NW,4.6,-,N/A,,Partly Cloudy,310,2012-10-11 01:00:00
6:53 PM,63.0,57.0,81,29.93,10.0,West,5.8,-,N/A,,Partly Cloudy,270,2012-10-11 01:53:00
7:53 PM,63.0,57.0,81,29.94,10.0,West,4.6,-,N/A,,Overcast,280,2012-10-11 02:53:00
8:53 PM,63.0,57.0,81,29.94,10.0,West,3.5,-,N/A,,Mostly Cloudy,280,2012-10-11 03:53:00
9:07 PM,62.6,57.2,82,29.95,10.0,Calm,Calm,-,N/A,,Scattered Clouds,0,2012-10-11 04:07:00
9:22 PM,62.6,55.4,77,29.95,10.0,Calm,Calm,-,N/A,,Mostly Cloudy,0,2012-10-11 04:22:00
9:53 PM,62.1,55.9,80,29.95,10.0,West,3.5,-,N/A,,Scattered Clouds,260,2012-10-11 04:53:00
10:53 PM,61.0,55.9,83,29.95,10.0,West,3.5,-,N/A,,Partly Cloudy,260,2012-10-11 05:53:00
11:37 PM,62.6,55.4,77,29.95,10.0,West,4.6,-,N/A,,Mostly Cloudy,260,2012-10-11 06:37:00
11:45 PM,62.6,55.4,77,29.95,10.0,WSW,4.6,-,N/A,,Mostly Cloudy,250,2012-10-11 06:45:00
11:53 PM,61.0,55.9,83,29.94,10.0,WSW,4.6,-,N/A,,Mostly Cloudy,250,2012-10-11 06:53:00